Other Public Products
Issued by NWS Charleston, SC

Current Version | Previous Version | Text Only | Print | Product List | Glossary Off
Versions: 1 2 3 4 5 6 7 8 9 10 11 12 13 14 15 16 17 18 19 20 21 22 23 24 25 26 27 28 29 30 31 32 33 34 35 36 37 38 39 40 41 42 43 44 45 46 47 48 49 50
000 FPUS82 KCHS 282112 OPUCHS TEST...KCHS/KSAV Gateway Observations...TEST National Weather Service Charleston SC 500 PM EDT FRI APR 28 2017 NOTE: "fair" indicates few or no clouds below 12,000 feet with no significant weather and/or obstructions to visibility. SCZ050-WAZ558-NCZ071-TXZ119-213-PAZ071-DCZ001-FLZ074-172-MI076- NYZ176-178-MAZ016-IL014-TNZ027-NJZ106-GAZ044-MD014-282200- ...Gateway Observations for Charleston International... CITY SKY/WX TMP DP RH WIND PRES REMARKS Chas Airport PTSUNNY 83 72 69 S20 30.09R Seattle PTSUNNY 56 39 53 VRB7 30.36S Charlotte MOSUNNY 84 64 50 SW15 30.05F Dallas DFW CLOUDY 86 69 56 S12 29.57F HX 90 Dallas Love PTSUNNY 86 68 54 S15 29.58F Philladelphia PTSUNNY 83 52 34 W8 30.00F Wash National MOSUNNY 83 61 47 S9 30.00F Baltimore MOSUNNY 83 60 45 SE7 30.00S Miami PTSUNNY 86 71 60 E16G24 30.05S HX 91 Detroit CLOUDY 62 41 46 S8 29.98F Newark MOSUNNY 85 41 21 SW17 29.97F Laguardia MOSUNNY 81 56 42 S17 29.96F J F K MOSUNNY 74 61 63 S16 29.99F Boston Logan MOSUNNY 81 61 50 SW9 29.91F Ft. Lauderdale PTSUNNY 84 74 71 E18 30.05F HX 91 Chicago O`Hare CLOUDY 58 45 62 E10 29.85F Chicago Midway CLOUDY 56 46 69 NE13 29.84F Houston Bush MOSUNNY 90 73 57 S18G28 29.64F HX 98 Houston Hobby MOSUNNY 86 74 67 SE16G26 29.65F HX 94 Nashville PTSUNNY 81 67 62 S16G23 29.87F Atlanta MOSUNNY 83 65 54 S9G22 30.03F $$ GAZ044-118-TXZ119-213-NCZ071-DCZ001-MDZ014-506-PAZ021-071-NJZ106- NYZ176-178-MAZ106-OHZ011-021-055-MIZ076-KYZ091-ILZ014-INZ047- MNZ060-ONZ431-282200- ...Gateway Observations for Savannah International... CITY SKY/WX TMP DP RH WIND PRES REMARKS Savannah Arpt MOSUNNY 89 70 53 SE9 30.05S HX 94 Atlanta MOSUNNY 83 65 54 S9G22 30.03F Charlotte MOSUNNY 84 64 50 SW15 30.05F Dallas DFW CLOUDY 86 69 56 S12 29.57F HX 90 Houston Bush MOSUNNY 90 73 57 S18G28 29.64F HX 98 Wash National MOSUNNY 83 61 47 S9 30.00F Wash Dulles MOSUNNY 83 58 42 S10 30.00S Baltimore MOSUNNY 83 60 45 SE7 30.00S Philadelphia PTSUNNY 83 52 34 W8 30.00F Newark MOSUNNY 85 41 21 SW17 29.97F Laguardia MOSUNNY 81 56 42 S17 29.96F J F K MOSUNNY 74 61 63 S16 29.99F Boston MOSUNNY 81 61 50 SW9 29.91F Pittsburg CLOUDY 72 45 37 NW3 30.02S Akron CLOUDY 66 47 50 W6 30.04R Cleveland LGT RAIN 62 46 55 SW5 30.05S Cincinnati PTSUNNY 74 56 53 SE10 29.90F Columbus CLOUDY 72 51 48 CALM 29.97S Detroit CLOUDY 62 41 46 S8 29.98F Chicago O`Hare CLOUDY 58 45 62 E10 29.85F Minneapolis CLOUDY 51 29 42 VRB6 29.95S Indianapolis CLOUDY 62 50 64 E10 29.86F Toronto Canada PTSUNNY 64 41 42 SW21G29 29.97R $$

USA.gov is the U.S. government's official web portal to all federal, state and local government web resources and services.